Regional Weather Roundup
Issued by NWS Bismarck, ND

Home | Current Version | Previous Version | Text Only | Print | Product List | Glossary On
Versions: 1 2 3 4 5 6 7 8 9 10 11 12 13 14 15 16 17 18 19 20 21 22 23 24 25 26 27 28 29 30 31 32 33 34 35 36 37 38 39 40 41 42 43 44 45 46 47 48 49 50
000
ASUS43 KBIS 230410
RWRBIS

NWR BROADCAST TEXT
NATIONAL WEATHER SERVICE BISMARCK ND
1100 PM CDT TUE AUG 22 2017

NOTE: "FAIR" INDICATES FEW OR NO CLOUDS BELOW 12,000 FEET WITH NO
SIGNIFICANT WEATHER AND/OR OBSTRUCTIONS TO VISIBILITY.


CITY           SKY/WX    TMP DP  RH WIND       PRES   REMARKS
WILLISTON      PTCLDY    68  45  43 S5        30.08S
MINOT          CLEAR     61  44  53 SE3       30.09F
MINOT AFB      PTCLDY    57  44  60 S6        30.08S
BISMARCK       CLEAR     59  49  69 CALM      30.12S
DICKINSON      CLEAR     55  43  63 SE7       30.12R
GARRISON         N/A     58  44  60 CALM      30.11S
HETTINGER ARPT CLEAR     61  45  55 E13       30.15R
JAMESTOWN      CLEAR     54  49  83 CALM      30.11R
CARRINGTON     FAIR      54  48  82 CALM      30.14R
HAZEN          FAIR      50  48  93 CALM      30.13R
LINTON         FAIR      54  43  66 SE7       30.15S
MANDAN         FAIR      57  46  67 S5        30.13R
RUGBY          FAIR      55  52  88 SE3       30.10S
STANLEY        FAIR      59  45  58 S3        30.14R
TIOGA          FAIR      59  43  55 S7        30.12S
WATFORD CITY   FAIR      63  41  45 SE9       30.09S
$$

CITY           SKY/WX    TMP DP  RH WIND       PRES   REMARKS
GRAND FORKS    PTCLDY    54  48  80 NW5       30.08R
GRAND FORKS AF CLEAR     49  46  89 NW5       30.09R
DEVILS LAKE    CLEAR     53  47  79 NE6       30.11R
FARGO          PTCLDY    57  47  69 W3        30.08R
CANDO          FAIR      54  52  94 NW3       30.13R
CAVALIER       FAIR      52  50  93 NW3       30.08S
GRAFTON        FAIR      55  52  88 NW6       30.10R
GWINNER        CLEAR     54  50  87 CALM      30.11S
LANGDON        FAIR      52  50  93 NE5       30.11S
ROLLA          CLOUDY    54  46  76 NE5       30.11S
WALHALLA       FAIR      54  54 100 CALM      30.09S
$$

CITY           SKY/WX    TMP DP  RH WIND       PRES   REMARKS
ABERDEEN       CLEAR     54  50  86 CALM      30.13R
MOBRIDGE       CLEAR     64  50  60 E10       30.11R
BUFFALO          N/A     67  46  47 E9        30.06R
RAPID CITY     CLEAR     66  45  46 SE3       30.10S
GLASGOW        CLEAR     70  35  27 E14       30.03R
SIDNEY         CLEAR     63  40  42 CALM      30.08S
WOLF POINT     CLEAR     63  37  38 NE6       30.05S
GLENDIVE       CLEAR     67  39  35 E7        30.09S
MILES CITY     CLEAR     74  36  25 E12       30.05R
BAKER          CLEAR     67  38  34 E13       30.12R
$$

CITY           SKY/WX    TMP DP  RH WIND       PRES   REMARKS
BILLINGS       CLEAR     76  33  21 E7        30.06S
GREAT FALLS    CLEAR     70  31  23 E7        30.04R
REGINA         CLOUDY    66  41  39 E10       30.03R
ESTEVAN        PTCLDY    61  43  51 SE8       30.07S
$$





USA.gov is the U.S. government's official web portal to all federal, state and local government web resources and services.